weather.gov     
National Weather Service

Hourly Weather Roundup
NWS Homepage
This page is being discontinued on March 12, 2014.
The same data is available at this site. Please update your bookmarks.
Thank you, and we apologize for the inconvenience.
Please send an email to SR-SRH.Webmaster@noaa.gov with any concerns.


Current Version
Previous Version:    01  02  03  04  05  06  07  08  09  10  11  12  13  14  15  16  17  18  19  20  21  22  23  24  25  26  27  28  29  30  
   31  32  33  34  35  36  37  38  39  40  41  42  43  44  45  46  47  48  49  50  51  52  53  54  55  56  57  58  59  60  
[Printable]
765
NZUS43 KILX 231910
HWRILX

AREA WEATHER ROUNDUP
NATIONAL WEATHER SERVICE, LINCOLN IL
200 PM CDT WED APR 23 2014


CITY           SKY/WX    TMP DP  RH WIND       PRES   REMARKS
BLOOMINGTON    SUNNY     56  25  30 VRB3      30.12F
CHAMPAIGN      SUNNY     59  29  31 NE8       30.10F
DANVILLE       SUNNY     57  28  33 N3        30.09S
DECATUR        SUNNY     61  28  28 E9        30.10F
FLORA          SUNNY     59  31  34 N9        30.10F
GALESBURG      MOSUNNY   60  33  36 E7        30.08F
JACKSONVILLE   MOSUNNY   60  31  33 E12       30.08F
LACON          MOSUNNY   55  30  38 E9        30.09F
LAWRENCEVILLE  SUNNY     60  30  32 N7        30.09F
LITCHFIELD     SUNNY     60  34  37 SE8       30.08F
$$


CITY           SKY/WX    TMP DP  RH WIND       PRES   REMARKS
LINCOLN        SUNNY     61  27  27 E5        30.08F
MACOMB         MOSUNNY   58  29  33 E15       30.09F
MATTOON        SUNNY     57  28  33 VRB5      30.09F
MT CARMEL AP   SUNNY     61  30  31 N5        30.09F
OLNEY-NOBLE AP SUNNY     59  32  36 CALM      30.10F
PARIS          SUNNY     58  29  34 CALM      30.11F
PEORIA         MOSUNNY   60  28  29 VRB5      30.09F
PONTIAC        SUNNY     57  28  33 E10       30.12F
RANTOUL        SUNNY     59  27  29 CALM      30.12F
ROBINSON       SUNNY     61  33  33 NW3       30.10F
SPRINGFIELD    SUNNY     62  32  32 E7        30.09F
TAYLORVILLE    SUNNY     59  28  31 NE6       30.09F
$$

...REGIONAL REPORTS...


CITY           SKY/WX    TMP DP  RH WIND       PRES   REMARKS
CHICAGO O`HARE PTSUNNY   50  25  37 E10G16    30.15F
KANKAKEE       SUNNY     53  31  43 NE8       30.14F
MOLINE         PTSUNNY   57  28  33 SE10      30.09F
MOUNT VERNON   SUNNY     63  34  34 E7        30.10F
PITTSFIELD     PTSUNNY   61  32  33 SE10      30.07F
QUINCY         PTSUNNY   59  33  37 SE15      30.05
ROCKFORD       CLOUDY    54  27  35 VRB3      30.14F
$$


CITY           SKY/WX    TMP DP  RH WIND       PRES   REMARKS
BURLINGTON     CLOUDY    55  30  38 SE12      30.05F
CEDAR RAPIDS   CLOUDY    50  31  48 SE17      30.06F
DES MOINES     LGT RAIN  47  40  76 SE10G22   29.98F
KIRKSVILLE     CLOUDY    57  38  48 E16       29.99F
OTTUMWA        LGT RAIN  49  35  58 SE12      30.04R
ST LOUIS       MOSUNNY   64  37  36 E12G18    30.06F
$$


CITY           SKY/WX    TMP DP  RH WIND       PRES   REMARKS
TERRE HAUTE    SUNNY     59  28  30 CALM      30.09F
EVANSVILLE     SUNNY     62  29  28 VRB3      30.08F
INDIANAPOLIS   MOSUNNY   54  27  35 CALM      30.09F
LAFAYETTE      SUNNY     54  29  38 E3        30.10F
MADISON        CLOUDY    53  24  32 E8        30.13F
MILWAUKEE      PTSUNNY   44  25  47 NE7       30.19F
$$






U.S. Dept. of Commerce
NOAA National Weather Service
1325 East West Highway
Silver Spring, MD 20910
E-mail: w-nws.webmaster@noaa.gov
Page last modified: May 16, 2007
NATIONAL WEATHER SERVICE: for Safety, for Work, for Fun - FOR LIFE